Starlink 35001

operational
NORAD ID: 65280 Int'l Des: 2025-184 Owner: SPXS Country: US Constellation: starlink
LEOCIRCULARRETROGRADESSO

Starlink 35001について

説明を読み込み中...

リアルタイム位置

3D地球を読み込み中...

次回通過

高度履歴

Altitude vs Time

uPlot chart will show altitude changes over time

軌道要素

1 65280U 25184H 26063.11820574 .00004233 00000-0 29739-3 0 9991
2 65280 97.6013 117.1863 0001169 110.8885 249.2467 15.05653885 30467
Epoch: Mar 4, 2026 • Age: 23 hours

現在のステータス

高度 572.3 km
速度 7.57 km/s
衛星直下点 -57.52°S, 137.8°E
打ち上げ日 Aug 22, 2025
運用期間 0.5 years
タイプ internet

技術仕様

分類 Payload
質量 575.00 kg
乾燥質量 530.00 kg
総質量 575.00 kg
長さ 0.30 m
直径 4.10 m
スパン 29.00 m
形状 Box + pan
製造者 SPXS
バスタイプ Starlink V2MO
フェーズステータス In Orbit
所有者/国 SPXS/US

大規模コンステレーション

Loading constellations...